STARLINK-32150, 60294

Orbit data source: Space-Track

STARLINK-32150, 60294 is a payload satellite owned by SpaceX/Seattle (US) in LEO that was launched on Sun, 28 Jul 2024 UTC via an FALCON 9 launch vehicle from the Air Force Eastern Test Range (AFETR). Payloads include a variety of satellites, spacecraft, and rockets equipped with specific instruments for various scientific and technological missions. These include communications satellites like Starlink; space stations such as the ISS; scientific satellites like the Hubble; Earth observation satellites from companies like Planet Labs, Umbra, and HawkEye 360; GPS; miniature CubeSats for education and research; and military/defense satellites.

Loading next visibility...
STARLINK-32150 details
Identifier
60294, 2024-132S
Orbit
LEO
Last TLE update11 hours ago
Origin
Flag of USSpaceX/Seattle (US)
ManufacturerSpaceX/Seattle
MissionOperational spacecraft
Bus & MotorSTARLINK V2M, Unknown motor
Mass730 kg wet, ~700 kg dry
Launch date (UTC)
2024-07-28 (6 months ago)
Launch vehicle
FALCON 9
Launch site
Air Force Eastern Test Range (AFETR)
Object type
Payload
Rocket body
Debris
Shape & HBRUnknown
Radar Cross SectionLarge (>1 m²)

Expand to show TLE details & history

TLE from 11 hours ago
0 STARLINK-32150
1 60294U 24132S   25014.93084383  .00000463  00000-0  27768-4 0  9990
2 60294  53.1605 197.7283 0001091  95.7363 264.3762 15.30202539 27441
Epoch: 2025-01-14T22:20Z
Definitive object data (Epoch: 2025-01-14T22:20:24.906Z)
Latitude-0.00006°
Longitude107.99401°
Altitude476.181 km
Speed7.629 km/s
True Right ascension13h 10m 54s
True Declination0° 00' 00"
Sunlit
Object was in daylight at TLE epoch
Visualization TLE readout
Latitude-52.95249°
Longitude25.19066°
Altitude494.359 km
Speed7.617 km/s
Apparent Right ascension01h 27m 28s
Apparent Declination-75° 54' 27"
Sunlit
Object is in daylight
Visualization observer readout
Local Sidereal Time09:36:29
Azimuth197.315° SSW
Elevation-46.221°
Doppler factor1
Orbital elements
Apogee altitude476.212 km
Perigee altitude474.716 km
Semi-major axis6,853.601 km
Eccentricity0.0001091
Inclination53.1605°
RAAN197.7283°
Arg. of periapsis95.7363°
True anomaly264.36376°
Mean anomaly264.3762°
Eccentric anomaly264.36998°
Mean motion3.8253 °/min
BSTAR0.000027768
Orbital period94.11 mins
Loading maneuver chart data...
Loading historical data...
Loading historical data...
Loading historical data...
Loading historical data...
Loading historical data...
Loading historical data...
Loading historical data...

STARLINK-32150 Visibility forecast

Observer location: undefined°, undefined

Span
Click to sort rows by Start time (UTC) header in descending order
Start Az.
Max El. time (UTC)
Max El. Az.
Max El.
End time (UTC)
End Az.
6 mins2025-01-15 14:10:42.045Z196.256° SSW2025-01-15 14:13:42.045Z120.598° SE30.422°2025-01-15 14:16:42.045Z65.738° ENE
4 mins2025-01-15 15:49:42.045Z286.411° WNW2025-01-15 15:51:42.045Z341.879° N25.808°2025-01-15 15:53:42.045Z24.346° NE
4 mins2025-01-15 20:46:42.045Z344.359° N2025-01-15 20:48:42.045Z48.797° ENE29.053°2025-01-15 20:50:42.045Z91.928° ESE
4 mins2025-01-15 22:24:42.045Z266.619° W2025-01-15 22:25:42.045Z241.067° WSW25.119°2025-01-15 22:28:42.045Z172.928° S
|